Simultaneous Nadir Overpasses (SNOs) Predictions

Prediction of SNOs between AQUA and NOAA-19 Satellite Orbit:

Table of predicted SNOs for the next 14.0 days since TLE Epoch: 4/12/2013
Index Date (AQUA) Time (AQUA) Lat,Lon (AQUA) SZA (AQUA ) Date (NOAA-19) Time (NOAA-19) Lat,Lon (NOAA-19) SZA (NOAA-19 ) Distance(km) Time Diff (sec)
1 04/14/2013 02:01:33 50.18, 163.70 42.23 04/14/2013 02:00:23 50.14, 163.41 42.06 21.55 70
2 04/14/2013 02:49:47 -46.06, -27.01 141.24 04/14/2013 02:50:11 -45.93, -27.55 141.48 44.41 24
3 04/16/2013 06:45:46 49.90, 92.75 41.26 04/16/2013 06:44:41 49.82, 92.47 41.06 22.24 65
4 04/16/2013 07:34:05 -46.08, -98.08 141.93 04/16/2013 07:34:35 -45.99, -98.66 142.14 45.36 30
5 04/18/2013 11:29:57 49.54, 21.83 40.24 04/18/2013 11:28:58 49.47, 21.54 40.05 22.63 59
6 04/18/2013 12:18:22 -46.07,-169.15 142.64 04/18/2013 12:18:57 -45.95,-169.72 142.87 46.29 35
7 04/20/2013 16:14:06 49.10, -49.05 39.17 04/20/2013 16:13:14 49.07, -49.36 39.01 23.12 52
8 04/20/2013 17:02:39 -46.10, 119.78 143.30 04/20/2013 17:03:20 -45.99, 119.18 143.52 47.44 41
9 04/22/2013 20:58:16 48.75,-119.97 38.20 04/22/2013 20:57:30 48.68,-120.28 38.01 23.68 46
10 04/22/2013 21:46:55 -46.10, 48.71 143.96 04/22/2013 21:47:42 -45.97, 48.11 144.20 48.68 47
11 04/25/2013 01:42:24 48.32, 169.14 37.18 04/25/2013 01:41:45 48.26, 168.83 36.99 24.36 39




NCC Satellite Simultaneous Nadir Overpasses (SNOs) Prediction Service
